Location: Grand Rapids
(42.9630°N, 85.6680°W)
Time: 03:36:29
(UTC-04:00)

A-11 Canister half - Pass Details

Date: 31 May 2024
Orbit: 1524 x 1684 km, 47.3° (Epoch: 21 June)

Event Time Altitude Azimuth Distance (km) Brightness Sun altitude
Rises 17:20:46 0° 169° (S) 4,665 11.5 40.1°
Reaches altitude 10° 17:26:42 10° 140° (SE) 3,681 10.8 39.1°
Maximum altitude 17:29:30 12° 122° (ESE) 3,553 10.6 38.5°
Drops below altitude 10° 17:32:18 10° 104° (ESE) 3,692 10.6 38.0°
Sets 17:38:14 0° 75° (ENE) 4,699 11.1 37.0°
